Location: Waco, TX
(31.5480°N, 97.1670°W)
Time: 17:47:03
(UTC-06:00)

ISS - Pass Details

Date: 17 January 2019
Orbit: 404 x 410 km, 51.6° (Epoch: 24 January)

Event Time Altitude Azimuth Distance (km) Brightness Sun altitude
Rises 04:35:44 0° 317° (NW) 2,338 - -36.3°
Reaches altitude 10° 04:37:50 10° 320° (NW) 1,474 - -35.9°
Maximum altitude 04:41:08 68° 44° (NE) 443 - -35.2°
Drops below altitude 10° 04:44:24 10° 128° (SE) 1,464 - -34.5°
Exits shadow 04:45:40 - 130° (SE) 1,980 0.3 -34.2°
Sets 04:46:29 0° 131° (SE) 2,320 0.7 -34.1°
